Weather History for Rochelle, IL

Change the Weather History Date:

Sunday, January 20, 2013

  Actual Average (KRFD) Record (KRFD)
Temperature  
Mean Temperature 16 °F 21 °F  
Max Temperature 21 °F 29 °F 51 °F (1921)
Min Temperature 10 °F 13 °F -26 °F (1985)
Degree Days  
Heating Degree Days 50 44  
Month to date heating degree days 874  
Since 1 July heating degree days 3435  
Cooling Degree Days 0 0  
Month to date cooling degree days 0  
Year to date cooling degree days 0  
Moisture  
Dew Point 5 °F    
Average Humidity 63    
Maximum Humidity 73    
Minimum Humidity 52    
Precipitation  
Precipitation 0.00 in 0.04 in 1.53 in (1909)
Month to date precipitation 0.92  
Year to date precipitation 0.92  
Snow  
Snow 0.00 in 0.30 in 5.10 in (2012)
Month to date snowfall 6.7  
Since 1 July snowfall 19.8  
Snow Depth -    
Sea Level Pressure  
Sea Level Pressure 30.23 in    
Wind  
Wind Speed 17 mph (WNW)    
Max Wind Speed 29 mph    
Max Gust Speed 43 mph    
Visibility 10 miles    
Events      
T = Trace of Precipitation, MM = Missing Value Source: NWS Daily Summary

Daily Weather History Graph

Daily Weather History Graph

Search for Another Location

Airport:

Trip Planner

Search our weather history database for the weather conditions in past years. The results will help you decide how hot, cold, wet, or windy it might be!

Date:

Astronomy

Jan. 20, 2013 Rise Set
Actual Time 7:18 AM CST 4:56 PM CST
Civil Twilight 6:48 AM CST 5:27 PM CST
Nautical Twilight 6:14 AM CST 6:01 PM CST
Astronomical Twilight 5:41 AM CST 6:34 PM CST
Moon 11:58 AM CST (1/20) 1:50 AM CST (1/20)
Length of Visible Light 10h 38m
Length of Day
9h 38m
Waxing Gibbous, 66% of the Moon is Illuminated
Jan 20
Waxing Gibbous
Jan 26
Full
Feb 3
Last Quarter
Feb 10
New
Feb 17
First Quarter

Hourly Weather History & Observations

Time (CST) Temp. Windchill Dew Point Humidity Pressure Visibility Wind Dir Wind Speed Gust Speed Precip Events Conditions
12:15 AM 21.6 °F 6.5 °F 9.3 °F 59% 30.02 in 10.0 mi WNW 19.6 mph 34.5 mph N/A   Clear
12:35 AM 21.0 °F 3.3 °F 8.4 °F 58% 30.03 in 10.0 mi WNW 27.6 mph 42.6 mph N/A   Clear
12:55 AM 20.3 °F 2.3 °F 9.5 °F 63% 30.04 in 10.0 mi WNW 27.6 mph 36.8 mph N/A   Clear
1:15 AM 19.2 °F 0.6 °F 8.8 °F 64% 30.05 in 10.0 mi WNW 28.8 mph 35.7 mph N/A   Clear
1:35 AM 18.5 °F 0.9 °F 7.2 °F 61% 30.07 in 10.0 mi NW 24.2 mph 31.1 mph N/A   Clear
1:55 AM 17.4 °F -0.9 °F 7.3 °F 65% 30.10 in 10.0 mi WNW 25.3 mph 31.1 mph N/A   Clear
2:15 AM 16.3 °F -2.0 °F 6.3 °F 65% 30.12 in 10.0 mi WNW 24.2 mph 31.1 mph N/A   Clear
2:35 AM 15.8 °F -3.1 °F 5.5 °F 64% 30.14 in 10.0 mi WNW 25.3 mph 32.2 mph N/A   Clear
2:55 AM 14.9 °F -4.6 °F 5.2 °F 65% 30.16 in 10.0 mi WNW 26.5 mph 32.2 mph N/A   Clear
3:15 AM 14.9 °F -2.7 °F 5.7 °F 67% 30.17 in 10.0 mi WNW 20.7 mph 25.3 mph N/A   Clear
3:35 AM 14.0 °F -3.4 °F 4.6 °F 66% 30.17 in 10.0 mi NW 19.6 mph 24.2 mph N/A   Clear
3:55 AM 13.5 °F -2.1 °F 4.5 °F 67% 30.17 in 10.0 mi WNW 15.0 mph 26.5 mph N/A   Clear
4:15 AM 13.1 °F -4.6 °F 4.6 °F 69% 30.19 in 10.0 mi WNW 19.6 mph - N/A   Clear
4:35 AM 12.9 °F -2.2 °F 4.5 °F 69% 30.20 in 10.0 mi NW 13.8 mph - N/A   Clear
4:55 AM 12.2 °F -4.8 °F 3.4 °F 68% 30.21 in 10.0 mi NW 17.3 mph 23.0 mph N/A   Clear
5:15 AM 12.2 °F -5.8 °F 3.6 °F 68% 30.22 in 10.0 mi WNW 19.6 mph 26.5 mph N/A   Clear
5:35 AM 11.8 °F -2.3 °F 3.2 °F 68% 30.22 in 10.0 mi NW 11.5 mph 17.3 mph N/A   Clear
5:55 AM 11.5 °F -6.3 °F 3.0 °F 69% 30.23 in 10.0 mi NW 18.4 mph 24.2 mph N/A   Clear
6:15 AM 11.3 °F -4.3 °F 2.5 °F 68% 30.25 in 10.0 mi NW 13.8 mph - N/A   Clear
6:35 AM 11.1 °F -5.7 °F 2.7 °F 69% 30.26 in 10.0 mi WNW 16.1 mph 19.6 mph N/A   Clear
6:55 AM 10.8 °F -2.8 °F 2.3 °F 69% 30.27 in 10.0 mi WNW 10.4 mph - N/A   Clear
7:15 AM 10.8 °F -3.6 °F 3.0 °F 71% 30.28 in 10.0 mi WNW 11.5 mph - N/A   Clear
7:35 AM 10.4 °F -6.0 °F 2.5 °F 70% 30.28 in 10.0 mi WNW 15.0 mph - N/A   Clear
7:55 AM 10.9 °F -5.4 °F 2.7 °F 69% 30.29 in 10.0 mi WNW 15.0 mph 21.9 mph N/A   Clear
8:15 AM 11.3 °F -3.6 °F 2.7 °F 68% 30.29 in 10.0 mi NW 12.7 mph 19.6 mph N/A   Clear
8:35 AM 11.8 °F -2.3 °F 2.5 °F 66% 30.30 in 10.0 mi NW 11.5 mph 19.6 mph N/A   Clear
8:55 AM 12.2 °F -1.0 °F 3.7 °F 69% 30.30 in 10.0 mi WNW 10.4 mph - N/A   Clear
9:15 AM 12.7 °F -2.5 °F 3.6 °F 67% 30.30 in 10.0 mi WNW 13.8 mph - N/A   Clear
9:35 AM 13.1 °F 0.9 °F 3.9 °F 67% 30.30 in 10.0 mi NNW 9.2 mph - N/A   Scattered Clouds
9:55 AM 13.8 °F 1.8 °F 4.1 °F 65% 30.30 in 10.0 mi NW 9.2 mph - N/A   Scattered Clouds
10:15 AM 14.5 °F 1.9 °F 5.2 °F 66% 30.31 in 10.0 mi NW 10.4 mph - N/A   Scattered Clouds
10:35 AM 15.3 °F 2.0 °F 5.9 °F 67% 30.31 in 10.0 mi WNW 11.5 mph 20.7 mph N/A   Clear
10:55 AM 15.3 °F 2.0 °F 5.2 °F 64% 30.31 in 10.0 mi NW 11.5 mph 18.4 mph N/A   Clear
11:15 AM 15.6 °F 2.5 °F 5.2 °F 63% 30.30 in 10.0 mi WNW 11.5 mph 16.1 mph N/A   Scattered Clouds
11:35 AM 15.8 °F 2.7 °F 5.9 °F 65% 30.29 in 10.0 mi WNW 11.5 mph - N/A   Scattered Clouds
11:55 AM 16.2 °F 4.7 °F 5.7 °F 64% 30.28 in 10.0 mi NW 9.2 mph - N/A   Mostly Cloudy
12:15 PM 16.5 °F 3.0 °F 5.9 °F 63% 30.28 in 10.0 mi WNW 12.7 mph - N/A   Scattered Clouds
12:35 PM 16.7 °F 2.6 °F 5.2 °F 61% 30.27 in 10.0 mi WNW 13.8 mph 17.3 mph N/A   Scattered Clouds
12:55 PM 17.6 °F 5.0 °F 4.5 °F 56% 30.27 in 10.0 mi NW 11.5 mph 20.7 mph N/A   Scattered Clouds
1:15 PM 17.2 °F 3.9 °F 4.6 °F 58% 30.26 in 10.0 mi WNW 12.7 mph 17.3 mph N/A   Scattered Clouds
1:35 PM 17.2 °F 3.9 °F 3.7 °F 56% 30.26 in 10.0 mi WNW 12.7 mph - N/A   Clear
1:55 PM 17.4 °F 4.1 °F 4.6 °F 57% 30.26 in 10.0 mi WNW 12.7 mph - N/A   Scattered Clouds
2:15 PM 17.6 °F 5.0 °F 5.0 °F 58% 30.26 in 10.0 mi NW 11.5 mph - N/A   Mostly Cloudy
2:35 PM 17.6 °F 4.3 °F 3.7 °F 55% 30.26 in 10.0 mi WNW 12.7 mph 17.3 mph N/A   Scattered Clouds
2:55 PM 18.0 °F 5.4 °F 4.1 °F 55% 30.26 in 10.0 mi WNW 11.5 mph - N/A   Mostly Cloudy
3:15 PM 19.0 °F 6.8 °F 4.8 °F 54% 30.26 in 10.0 mi WNW 11.5 mph - N/A   Mostly Cloudy
3:35 PM 18.3 °F 5.2 °F 3.4 °F 52% 30.26 in 10.0 mi WNW 12.7 mph 18.4 mph N/A   Mostly Cloudy
3:55 PM 18.1 °F 7.1 °F 4.6 °F 56% 30.26 in 10.0 mi WNW 9.2 mph - N/A   Mostly Cloudy
4:15 PM 18.0 °F 6.1 °F 4.5 °F 56% 30.26 in 10.0 mi NW 10.4 mph - N/A   Overcast
4:35 PM 17.4 °F 5.4 °F 3.4 °F 54% 30.26 in 10.0 mi NW 10.4 mph - N/A   Overcast
4:55 PM 17.2 °F 4.5 °F 3.6 °F 55% 30.26 in 10.0 mi WNW 11.5 mph - N/A   Overcast
5:15 PM 16.9 °F 4.1 °F 2.8 °F 54% 30.26 in 10.0 mi WNW 11.5 mph - N/A   Overcast
5:35 PM 16.5 °F 6.0 °F 2.3 °F 54% 30.26 in 10.0 mi WNW 8.1 mph - N/A   Overcast
5:55 PM 16.5 °F 4.3 °F 3.2 °F 56% 30.26 in 10.0 mi WNW 10.4 mph - N/A   Overcast
6:15 PM 16.5 °F 3.0 °F 3.7 °F 57% 30.26 in 10.0 mi West 12.7 mph - N/A   Overcast
6:35 PM 16.5 °F 4.3 °F 3.4 °F 56% 30.26 in 10.0 mi WNW 10.4 mph - N/A   Overcast
6:55 PM 16.5 °F 5.1 °F 5.2 °F 61% 30.26 in 10.0 mi West 9.2 mph - N/A   Overcast
7:15 PM 16.5 °F 3.6 °F 5.4 °F 62% 30.25 in 10.0 mi WNW 11.5 mph - N/A   Overcast
7:35 PM 16.5 °F 6.9 °F 5.7 °F 63% 30.25 in 10.0 mi WNW 6.9 mph - N/A   Overcast
7:55 PM 16.3 °F 3.4 °F 5.2 °F 62% 30.25 in 10.0 mi WNW 11.5 mph - N/A   Overcast
8:15 PM 16.2 °F 3.9 °F 4.8 °F 61% 30.24 in 10.0 mi WNW 10.4 mph - N/A   Overcast
8:35 PM 15.4 °F 4.6 °F 4.3 °F 61% 30.24 in 10.0 mi NW 8.1 mph - N/A   Overcast
8:55 PM 15.4 °F 5.6 °F 4.3 °F 61% 30.24 in 10.0 mi NW 6.9 mph - N/A   Overcast
9:15 PM 14.9 °F 6.1 °F 4.5 °F 63% 30.24 in 10.0 mi WNW 5.8 mph - N/A   Overcast
9:35 PM 14.9 °F 1.6 °F 5.4 °F 66% 30.23 in 10.0 mi WNW 11.5 mph - N/A   Overcast
9:55 PM 14.5 °F -0.2 °F 4.5 °F 64% 30.22 in 10.0 mi West 13.8 mph - N/A   Overcast
10:15 PM 13.6 °F 0.7 °F 4.1 °F 66% 30.22 in 10.0 mi WNW 10.4 mph - N/A   Overcast
10:35 PM 13.6 °F -1.9 °F 4.3 °F 66% 30.22 in 10.0 mi West 15.0 mph - N/A   Mostly Cloudy
10:55 PM 13.1 °F -2.6 °F 4.6 °F 69% 30.22 in 10.0 mi West 15.0 mph - N/A   Mostly Cloudy
11:15 PM 12.7 °F -3.6 °F 3.9 °F 68% 30.22 in 10.0 mi WNW 16.1 mph 20.7 mph N/A   Scattered Clouds
11:35 PM 12.2 °F -2.5 °F 4.3 °F 71% 30.21 in 10.0 mi West 12.7 mph 17.3 mph N/A   Scattered Clouds
11:55 PM 12.0 °F -3.4 °F 5.0 °F 73% 30.21 in 10.0 mi West 13.8 mph - N/A   Scattered Clouds